Waarnemingen

Advertentie
Mijn weer
Umeå Flygplats, Zweden (2286): temperatuur & dauwpunt: 19.04.2018 14:00:00 - 25.04.2018 14:00:00 (CEST)Umeå Flygplats, Zweden (2286): windsnelheid: 19.04.2018 14:00:00 - 25.04.2018 14:00:00 (CEST)Umeå Flygplats, Zweden (2286): windrichting: 19.04.2018 14:00:00 - 25.04.2018 14:00:00 (CEST)Umeå Flygplats, Zweden (2286): luchtdruk: 19.04.2018 14:00:00 - 25.04.2018 14:00:00 (CEST)Umeå Flygplats, Zweden (2286): zicht: 19.04.2018 14:00:00 - 25.04.2018 14:00:00 (CEST)
Datum & Tijd tt [°C] td [°C] ff [km/u] ff [kn] dd ppp [hPa] vv [km]
25.04.2018 14:00:00 10,0 4,0 16 9 Z - 10
25.04.2018 13:00:00 11,2 4,2 16 9 ZZO 990,8 10
25.04.2018 12:00:00 11,3 5,0 9 5 ZW 990,8 10
25.04.2018 11:00:00 8,6 5,0 9 5 OZO 991,0 10
25.04.2018 10:00:00 5,8 4,4 8 4 ZO 991,2 10
25.04.2018 09:00:00 2,9 2,9 4 2 - 991,3 2,0
25.04.2018 08:00:00 1,0 1,0 0 0 N 991,5 0,2
25.04.2018 07:00:00 0,0 0,0 0 0 N 991,4 0,2
25.04.2018 06:00:00 -0,2 -0,2 4 2 NW 991,6 0,1
25.04.2018 05:00:00 -0,6 -0,6 0 0 N 991,7 0,1
25.04.2018 04:00:00 -0,6 -0,6 0 0 N 992,0 0,1
25.04.2018 03:00:00 -0,3 -0,3 2 1 WNW 992,1 0,1
25.04.2018 02:00:00 -0,3 -0,3 0 0 N 992,3 0,1
25.04.2018 01:00:00 -0,1 -0,2 0 0 N 992,5 0,1
25.04.2018 00:00:00 0,3 0,2 4 2 OZO 992,7 3,1
24.04.2018 23:00:00 1,1 0,8 5 3 Z 993,0 9
24.04.2018 22:00:00 1,7 1,4 9 5 Z 993,2 10
24.04.2018 21:00:00 2,4 1,8 11 6 Z 993,4 10
24.04.2018 20:00:00 3,5 2,2 11 6 Z 993,3 10
24.04.2018 19:00:00 5,3 2,6 15 8 Z 993,1 10
24.04.2018 18:00:00 6,4 3,4 15 8 Z 992,7 10
24.04.2018 17:00:00 6,6 4,3 15 8 ZZW 992,8 10
24.04.2018 16:00:00 5,6 3,9 13 7 ZZW 992,8 10
24.04.2018 15:00:00 4,7 3,7 11 6 ZZW 992,8 10
24.04.2018 14:00:00 3,9 3,8 11 6 ZW 992,8 50
24.04.2018 13:00:00 2,5 2,5 13 7 Z 992,8 3,1
24.04.2018 12:00:00 2,3 2,2 11 6 Z 992,7 1,1
24.04.2018 11:00:00 2,6 2,5 11 6 ZZO 993,0 6
24.04.2018 10:00:00 2,4 2,3 15 8 ZZO 993,3 0,8
24.04.2018 09:00:00 2,2 2,1 16 9 ZZO 993,5 1,1
24.04.2018 08:00:00 2,1 1,8 16 9 OZO 994,0 2,6
24.04.2018 07:00:00 1,8 1,7 18 10 OZO 994,8 1,5
24.04.2018 06:00:00 1,9 1,6 22 12 OZO 995,6 1,6
24.04.2018 05:00:00 2,1 1,4 18 10 OZO 996,6 6
24.04.2018 04:00:00 2,6 0,8 16 9 OZO 997,7 10
24.04.2018 03:00:00 3,9 0,1 15 8 OZO 998,6 10
24.04.2018 02:00:00 3,5 1,2 13 7 OZO 999,8 10
24.04.2018 01:00:00 3,9 1,8 9 5 O 1000,9 10
24.04.2018 00:00:00 3,6 2,1 13 7 OZO 1002,1 10
23.04.2018 23:00:00 3,4 1,4 9 5 ZO 1003,0 10
23.04.2018 22:00:00 3,4 1,6 9 5 ZO 1004,2 10
23.04.2018 21:00:00 3,2 1,7 15 8 ZZO 1005,0 10
23.04.2018 20:00:00 3,6 2,1 11 6 ZZO 1005,8 50
23.04.2018 19:00:00 3,8 2,5 15 8 Z 1006,4 10
23.04.2018 18:00:00 3,7 2,7 13 7 Z 1007,3 10
23.04.2018 17:00:00 3,4 2,4 11 6 Z 1008,0 23
23.04.2018 16:00:00 3,8 2,6 13 7 Z 1008,9 10
23.04.2018 15:00:00 3,7 2,4 15 8 Z 1009,6 10
23.04.2018 14:00:00 3,5 2,3 11 6 Z 1010,4 45
23.04.2018 13:00:00 2,7 1,5 14 8 Z 1011,0 50
23.04.2018 12:00:00 3,1 1,9 21 11 ZZO 1011,2 10
23.04.2018 11:00:00 2,4 2,0 14 8 ZO 1011,5 8
23.04.2018 10:00:00 3,5 2,2 13 7 ZZO 1011,7 10
23.04.2018 09:00:00 2,1 2,1 13 7 ZZO 1012,4 8
23.04.2018 08:00:00 1,4 1,4 7 4 Z 1012,9 5
23.04.2018 07:00:00 0,8 0,8 8 4 ZZO 1013,2 0,2
23.04.2018 06:00:00 0,3 0,3 4 2 - 1013,6 0,4
23.04.2018 05:00:00 0,0 0,0 4 2 ZZO 1013,8 0,4
23.04.2018 04:00:00 -0,1 -0,1 0 0 N 1014,1 0,2
23.04.2018 03:00:00 -0,4 -0,5 0 0 N 1014,4 0,3
23.04.2018 02:00:00 -0,7 -0,8 4 2 Z 1014,8 0,4
23.04.2018 01:00:00 -0,8 -0,9 5 3 ZO 1015,2 8
23.04.2018 00:00:00 -0,9 -1,2 4 2 - 1015,4 5
22.04.2018 23:00:00 -1,2 -1,8 5 3 ZZO 1015,4 10
22.04.2018 22:00:00 -0,3 -1,0 4 2 ZO 1015,4 10
22.04.2018 21:00:00 0,4 -0,9 5 3 Z 1015,5 10
22.04.2018 20:00:00 1,9 -0,4 7 4 ZZO 1015,5 50
22.04.2018 19:00:00 2,9 0,0 9 5 Z 1015,4 10
22.04.2018 18:00:00 3,6 -0,1 11 6 Z 1015,4 50
22.04.2018 17:00:00 4,0 0,5 11 6 Z 1015,6 26
22.04.2018 16:00:00 5,0 0,9 13 7 Z 1015,4 10
22.04.2018 15:00:00 5,5 1,0 11 6 ZO 1015,4 10
22.04.2018 14:00:00 6,4 0,7 5 3 ZO 1015,4 10
22.04.2018 13:00:00 4,9 1,0 0 0 N 1015,2 10
22.04.2018 12:00:00 3,9 0,4 5 3 NNO 1015,1 10
22.04.2018 11:00:00 3,3 0,4 9 5 N 1014,7 10
22.04.2018 10:00:00 2,9 0,5 9 5 NNW 1014,4 10
22.04.2018 09:00:00 2,7 0,4 13 7 N 1013,8 10
22.04.2018 08:00:00 2,7 0,9 11 6 N 1012,6 45
22.04.2018 07:00:00 2,4 0,6 11 6 NNW 1011,7 45
22.04.2018 06:00:00 2,1 0,3 13 7 NNW 1010,9 10
22.04.2018 05:00:00 1,8 0,3 14 8 N 1010,1 50
22.04.2018 04:00:00 1,8 0,6 13 7 N 1009,1 10
22.04.2018 03:00:00 1,8 0,9 9 5 N 1008,2 10
22.04.2018 02:00:00 1,3 0,7 8 4 N 1007,3 6
22.04.2018 01:00:00 1,2 0,6 5 3 NNO 1006,4 7
22.04.2018 00:00:00 1,3 0,4 5 3 NO 1005,3 10
21.04.2018 23:00:00 1,2 0,3 4 2 NO 1004,5 10
21.04.2018 22:00:00 1,4 0,2 4 2 - 1003,9 10
21.04.2018 21:00:00 1,6 0,4 4 2 ZO 1003,5 10
21.04.2018 20:00:00 2,0 0,7 11 6 ZO 1003,0 50
21.04.2018 19:00:00 2,6 1,0 9 5 OZO 1002,9 10
21.04.2018 18:00:00 3,4 1,3 11 6 ZZO 1002,5 10
21.04.2018 17:00:00 3,8 1,3 11 6 ZO 1002,3 50
21.04.2018 16:00:00 4,2 1,1 13 7 ZO 1002,3 10
21.04.2018 15:00:00 3,9 1,3 13 7 ZZO 1001,8 10
21.04.2018 14:00:00 4,8 1,3 15 8 ZO 1001,4 10
21.04.2018 13:00:00 8,2 1,8 11 6 NW 1000,7 10
21.04.2018 12:00:00 9,7 3,4 24 13 WNW 1000,5 10
21.04.2018 11:00:00 8,9 2,9 21 11 WNW 999,8 10
21.04.2018 10:00:00 8,7 2,7 18 10 WNW 999,3 10
21.04.2018 09:00:00 7,9 3,2 11 6 WNW 999,1 10
21.04.2018 08:00:00 7,9 3,4 14 8 WNW 999,3 50
21.04.2018 07:00:00 6,2 2,5 13 7 WNW 999,5 10
21.04.2018 06:00:00 4,3 1,5 16 9 WNW 999,6 10
21.04.2018 05:00:00 3,1 1,3 11 6 WNW 999,8 50
21.04.2018 04:00:00 4,9 1,7 9 5 NW 1000,2 10
21.04.2018 03:00:00 5,8 2,1 11 6 NNW 1000,4 50
21.04.2018 02:00:00 5,7 2,2 8 4 NNW 1001,0 10
21.04.2018 01:00:00 2,6 1,0 5 3 NW 1001,8 10
21.04.2018 00:00:00 3,1 1,3 0 0 N 1002,5 10
20.04.2018 23:00:00 3,1 0,8 0 0 N 1003,0 10
20.04.2018 22:00:00 4,0 1,7 0 0 N 1003,3 10
20.04.2018 21:00:00 6,2 2,3 0 0 N 1004,7 10
20.04.2018 20:00:00 8,8 2,4 4 2 ZZW 1005,6 50
20.04.2018 19:00:00 10,5 2,8 8 4 W 1006,5 10
20.04.2018 18:00:00 10,8 3,6 7 4 WNW 1007,2 50
20.04.2018 17:00:00 11,8 3,8 11 6 WNW 1008,1 50
20.04.2018 16:00:00 12,6 4,3 14 8 WNW 1008,9 50
20.04.2018 15:00:00 13,6 5,2 21 11 NW 1009,6 10
20.04.2018 14:00:00 13,2 5,6 18 10 NW 1010,3 10
20.04.2018 13:00:00 12,9 6,5 15 8 WNW 1010,8 10
20.04.2018 12:00:00 11,4 5,5 9 5 WNW 1011,4 10
20.04.2018 11:00:00 7,5 4,8 0 0 N 1011,7 10
20.04.2018 10:00:00 4,7 3,0 0 0 N 1012,0 10
20.04.2018 09:00:00 3,3 2,1 0 0 N 1012,6 10
20.04.2018 08:00:00 2,2 1,5 0 0 N 1013,1 45
20.04.2018 07:00:00 2,1 1,7 4 2 - 1013,4 10
20.04.2018 06:00:00 1,7 1,1 4 2 - 1014,6 10
20.04.2018 05:00:00 2,0 1,1 7 4 ZO 1015,4 30
20.04.2018 04:00:00 2,0 0,5 4 2 - 1016,4 10
20.04.2018 03:00:00 2,0 0,2 0 0 N 1017,2 10
20.04.2018 02:00:00 2,1 0,3 0 0 N 1018,0 50
20.04.2018 01:00:00 1,7 0,2 0 0 N 1019,5 50
20.04.2018 00:00:00 3,9 0,9 0 0 N 1020,0 10
19.04.2018 23:00:00 3,8 0,8 4 2 O 1021,0 50
19.04.2018 22:00:00 4,6 1,4 4 2 O 1021,7 10
19.04.2018 21:00:00 6,2 2,3 4 2 ONO 1021,9 50
19.04.2018 20:00:00 6,7 2,6 7 4 ZO 1022,2 50
19.04.2018 19:00:00 9,5 2,8 5 3 Z 1022,6 10
19.04.2018 18:00:00 10,1 3,1 0 0 N 1023,1 10
19.04.2018 17:00:00 14,6 2,8 11 6 NW 1023,3 10
19.04.2018 16:00:00 14,4 3,2 9 5 NW 1023,6 10
19.04.2018 15:00:00 13,5 3,8 16 9 NW 1023,8 10
19.04.2018 14:00:00 13,1 3,5 18 10 WNW 1024,1 10

tt = temperatuur
td = dauwpunt
ff = windsnelheid
dd = windrichting
ppp = luchtdruk
vv = zicht

Weerstations in de omgeving